Simultaneous Nadir Overpasses (SNOs) Predictions

Prediction of SNOs between GOES-15 and METOP-B Satellite Orbit:

Table of predicted SNOs for the next 14.0 days since TLE Epoch: 2/25/2023
Index Date Time (GOES-15) GOES-15 Lat,Lon METOP-B Lat,Lon Distance(km) Time Diff (sec)
1 02/26/2023 18:01:23 -0.03,-128.06 -0.02,-128.11 6.89 80
2 03/01/2023 06:02:24 0.04,-128.03 0.09,-127.72 35.84 80
3 03/02/2023 18:18:36 -0.05,-127.97 0.89,-132.29 491.33 80
4 03/03/2023 18:00:37 -0.05,-127.95 -0.22,-127.29 75.30 80
5 03/05/2023 06:16:57 0.06,-127.94 -0.80,-131.89 449.67 80
6 03/06/2023 05:58:57 0.05,-127.91 0.26,-126.88 117.08 80
7 03/07/2023 18:15:09 -0.06,-127.85 0.72,-131.45 410.17 80
8 03/08/2023 17:57:09 -0.05,-127.82 -0.34,-126.45 156.24 80
9 03/10/2023 06:13:29 0.06,-127.80 -0.66,-131.05 369.36 80
